Torna al catalogo

STARLINK-35452

AttivoComunicazioniVLEO
NORAD 66104·PAYLOAD·🇺🇸 United States

Lanciato Oct 19, 2025 da Vandenberg Space Force Base

Loading…

Prossimi Passaggi (prossime 24 ore)

TLE

AggiornatoSource: CelesTrak SupGP

Epoca: Sep 14, 2026, 21:27 UTC

1 66104C 25236U   26257.89423611  .00014936  00000+0  44140-3 0  2576
2 66104  53.1592 301.6849 0001222  87.1550 138.7447 15.34376247    15

Traccia STARLINK-35452 in tempo reale con AllMySat

Download on the App Store